This is the latest recevied weather packets stored in our database for station/object SQ3MKP-13. If no packets are shown the sender has not sent any weather packets the latest 10 day(s).
| Time | Temp. | Humidity | Pressure | Rain* | Wind** | Luminosity | Snow |
|---|---|---|---|---|---|---|---|
| 1787906823 | 21.11° C | 54% | 1006.1 hPa | - | - | 376 W/m² | - |
| 1787906522 | 20.56° C | 56% | 1006.1 hPa | - | - | 495 W/m² | - |
| 1787906221 | 20.56° C | 56% | 1006.1 hPa | - | - | 460 W/m² | - |
| 1787905920 | 20° C | 56% | 1006.1 hPa | - | - | 375 W/m² | - |
| 1787905619 | 20° C | 56% | 1006.2 hPa | - | - | 446 W/m² | - |
| 1787905318 | 20° C | 56% | 1006.4 hPa | - | - | 348 W/m² | - |
| 1787905017 | 19.44° C | 57% | 1006.7 hPa | - | - | 436 W/m² | - |
| 1787904716 | 18.89° C | 58% | 1006.8 hPa | - | - | 396 W/m² | - |
| 1787904415 | 18.89° C | 59% | 1006.8 hPa | - | - | 191 W/m² | - |
| 1787904114 | 18.89° C | 59% | 1006.9 hPa | - | - | 201 W/m² | - |
| 1787903813 | 18.89° C | 59% | 1007 hPa | - | - | 203 W/m² | - |
| 1787903511 | 18.89° C | 58% | 1007.1 hPa | - | - | 222 W/m² | - |
| 1787903211 | 18.89° C | 58% | 1007.2 hPa | - | - | 204 W/m² | - |
| 1787902909 | 18.89° C | 58% | 1007.1 hPa | - | - | 210 W/m² | - |
| 1787902609 | 18.33° C | 59% | 1007 hPa | - | - | 200 W/m² | - |
| 1787902308 | 18.33° C | 59% | 1006.7 hPa | - | - | 203 W/m² | - |
| 1787902007 | 18.33° C | 59% | 1006.7 hPa | - | - | 196 W/m² | - |
| 1787901706 | 18.33° C | 60% | 1006.4 hPa | - | - | 201 W/m² | - |
| 1787901405 | 18.33° C | 60% | 1006.3 hPa | - | - | 192 W/m² | - |
| 1787901104 | 17.78° C | 61% | 1006.4 hPa | - | - | 183 W/m² | - |
| 1787900803 | 17.78° C | 62% | 1006.4 hPa | - | - | 173 W/m² | - |
| 1787900502 | 17.78° C | 63% | 1006.5 hPa | - | - | 166 W/m² | - |
| 1787900201 | 17.78° C | 62% | 1006.6 hPa | - | - | 156 W/m² | - |
| 1787899900 | 17.78° C | 63% | 1006.5 hPa | - | - | 168 W/m² | - |
| 1787899599 | 17.22° C | 63% | 1006.6 hPa | - | - | 175 W/m² | - |
* Rain since midnight (hover to see other rain measurements)
** Current wind speed in m/s (hover to see current wind gust speed)